Saginaw, MI

5:11 AM EST on December 18, 2017 (GMT -0500)
MBS International

Weather History for KMBS - January, 2014

Change the Weather History Date:

Wednesday, January 22, 2014

  Actual Average Record
Temperature  
Mean Temperature 5 °F 22 °F  
Max Temperature 12 °F 29 °F 43 °F (1997)
Min Temperature -3 °F 15 °F -6 °F (2000)
Degree Days  
Heating Degree Days 60    
Month to date heating degree days 1034  
Since 1 July heating degree days 3738  
Cooling Degree Days 0    
Month to date cooling degree days 0  
Year to date cooling degree days 0  
Moisture  
Dew Point 1 °F    
Average Humidity 76    
Maximum Humidity 83    
Minimum Humidity 68    
Precipitation  
Precipitation 0.08 in 0.05 in 0.49 in (1999)
Month to date precipitation 1.75 1.29  
Year to date precipitation 1.75 1.29  
Snow  
Snow 0.90 in - - ()
Month to date snowfall 13.1  
Since 1 July snowfall 33.6  
Snow Depth 10.00 in    
Sea Level Pressure  
Sea Level Pressure 30.00 in    
Wind  
Wind Speed 7 mph (South)    
Max Wind Speed 16 mph    
Max Gust Speed 20 mph    
Visibility 4 miles    
Events Snow    
T = Trace of Precipitation, MM = Missing Value Source: NWS Daily Summary

Daily Weather History Graph

Daily Weather History Graph

Search for Another Location

Airport or City:

Trip Planner

Search our weather history database for the weather conditions in past years. The results will help you decide how hot, cold, wet, or windy it might be!

Date:

Astronomy

Jan. 22, 2014 Rise Set
Actual Time 8:01 AM EST 5:34 PM EST
Civil Twilight 7:30 AM EST 6:05 PM EST
Nautical Twilight 6:55 AM EST 6:40 PM EST
Astronomical Twilight 6:21 AM EST 7:14 PM EST
Moon No Moon Rise 10:50 AM EST (1/22)
Length of Visible Light 10h 34m
Length of Day
9h 32m
Waning Gibbous, 65% of the Moon is Illuminated
Jan 22
Waning Gibbous
Jan 24
Last Quarter
Jan 30
New
Feb 6
First Quarter
Feb 14
Full

Hourly Weather History & Observations

Time (EST) Temp. Windchill Dew Point Humidity Pressure Visibility Wind Dir Wind Speed Gust Speed Precip Events Conditions
12:53 AM -0.0 °F - -7.1 °F 72% 30.23 in 10.0 mi Calm Calm - N/A   Clear
1:53 AM -2.0 °F - -8.0 °F 76% 30.21 in 10.0 mi Calm Calm - N/A   Clear
2:53 AM -0.0 °F -7.9 °F -8.0 °F 69% 30.20 in 10.0 mi SSW 3.5 mph - N/A   Mostly Cloudy
3:53 AM -0.0 °F - -8.0 °F 69% 30.19 in 10.0 mi Calm Calm - N/A   Overcast
4:53 AM -0.9 °F -11.0 °F -8.0 °F 72% 30.16 in 10.0 mi SE 4.6 mph - N/A   Mostly Cloudy
5:53 AM 1.0 °F -11.7 °F -8.0 °F 66% 30.14 in 10.0 mi South 6.9 mph - N/A   Overcast
6:53 AM 1.0 °F -10.3 °F -8.0 °F 66% 30.12 in 10.0 mi South 5.8 mph - N/A   Overcast
7:53 AM 1.0 °F -10.3 °F -7.1 °F 69% 30.12 in 10.0 mi South 5.8 mph - N/A   Overcast
8:53 AM 3.9 °F -9.4 °F -5.1 °F 66% 30.09 in 10.0 mi SE 8.1 mph - N/A   Overcast
9:53 AM 5.0 °F -9.1 °F -4.0 °F 66% 30.09 in 3.0 mi SSE 9.2 mph - N/A   Haze
10:04 AM 6.8 °F -5.9 °F -2.2 °F 67% 30.04 in 2.0 mi SSE 8.1 mph - 0.00 in Snow Light Snow
10:15 AM 5.0 °F -8.1 °F -2.2 °F 72% 30.03 in 0.5 mi SSE 8.1 mph - 0.00 in Snow Light Snow
10:53 AM 6.1 °F -8.7 °F 1.0 °F 80% 30.07 in 1.0 mi SSE 10.4 mph - 0.00 in Snow Light Snow
11:41 AM 6.8 °F -10.0 °F 1.4 °F 79% 29.99 in 1.0 mi South 13.8 mph - 0.00 in Snow Light Snow
11:53 AM 8.1 °F -7.7 °F 1.0 °F 73% 30.04 in 1.0 mi South 12.7 mph - 0.00 in Snow Light Snow
12:09 PM 8.6 °F -7.0 °F 1.4 °F 73% 29.97 in 0.5 mi South 12.7 mph - 0.00 in Snow Light Snow
12:53 PM 9.0 °F -5.9 °F 3.9 °F 80% 30.00 in 0.8 mi South 11.5 mph - 0.00 in Snow Light Snow
1:53 PM 10.9 °F -3.4 °F 5.0 °F 77% 29.96 in 0.8 mi South 11.5 mph - 0.00 in Snow Light Snow
2:42 PM 10.4 °F -4.1 °F 5.0 °F 79% 29.90 in 1.5 mi SSE 11.5 mph - 0.00 in Snow Light Snow
2:53 PM 10.9 °F -4.1 °F 5.0 °F 77% 29.95 in 5.0 mi SSE 12.7 mph - 0.00 in   Haze
3:04 PM 10.4 °F -5.4 °F 3.2 °F 73% 29.89 in 2.0 mi South 13.8 mph - 0.00 in Snow Light Snow
3:40 PM 10.4 °F -4.8 °F 5.0 °F 79% 29.89 in 3.0 mi South 12.7 mph - 0.00 in Snow Light Snow
3:53 PM 10.9 °F -4.1 °F 3.9 °F 73% 29.94 in 3.0 mi South 12.7 mph - 0.00 in   Haze
4:02 PM 10.4 °F -4.1 °F 5.0 °F 79% 29.90 in 2.0 mi South 11.5 mph - 0.00 in Snow Light Snow
4:14 PM 10.4 °F -4.1 °F 5.0 °F 79% 29.90 in 1.8 mi South 11.5 mph - 0.00 in Snow Light Snow
4:45 PM 10.4 °F -4.8 °F 5.0 °F 79% 29.90 in 1.8 mi South 12.7 mph - 0.00 in Snow Light Snow
4:53 PM 10.9 °F -4.7 °F 5.0 °F 77% 29.95 in 1.8 mi South 13.8 mph - 0.00 in Snow Light Snow
5:13 PM 10.4 °F -4.8 °F 5.0 °F 79% 29.90 in 1.8 mi South 12.7 mph - 0.00 in Snow Light Snow
5:53 PM 10.9 °F -2.6 °F 5.0 °F 77% 29.96 in 2.0 mi SSE 10.4 mph - 0.00 in Snow Light Snow
6:53 PM 10.9 °F -2.6 °F 6.1 °F 81% 29.96 in 2.0 mi South 10.4 mph - 0.00 in Snow Light Snow
7:04 PM 10.4 °F -3.3 °F 6.8 °F 85% 29.91 in 2.0 mi South 10.4 mph - 0.00 in Snow Light Snow
7:29 PM 10.4 °F -2.4 °F 6.8 °F 85% 29.92 in 2.0 mi South 9.2 mph - 0.00 in Snow Light Snow
7:46 PM 10.4 °F -1.5 °F 6.8 °F 85% 29.92 in 2.0 mi South 8.1 mph - 0.00 in   Haze
7:53 PM 10.9 °F -0.8 °F 6.1 °F 81% 29.97 in 2.0 mi South 8.1 mph - 0.00 in   Haze
8:26 PM 10.4 °F -0.4 °F 6.8 °F 85% 29.92 in 2.0 mi South 6.9 mph - 0.00 in   Haze
8:53 PM 10.0 °F 1.8 °F 5.0 °F 80% 29.97 in 2.5 mi South 4.6 mph - 0.00 in   Overcast
9:10 PM 10.4 °F 2.2 °F 6.8 °F 85% 29.92 in 2.5 mi South 4.6 mph - 0.00 in Snow Light Snow
9:45 PM 10.4 °F -0.4 °F 5.0 °F 79% 29.92 in 2.5 mi South 6.9 mph - 0.00 in Snow Light Snow
9:53 PM 10.0 °F -0.9 °F 5.0 °F 80% 29.97 in 2.5 mi South 6.9 mph - 0.00 in Snow Light Snow
10:53 PM 10.0 °F 1.8 °F 5.0 °F 80% 29.97 in 2.5 mi SSE 4.6 mph - 0.00 in Snow Light Snow
11:53 PM 9.0 °F 2.4 °F 5.0 °F 84% 29.98 in 2.5 mi SSE 3.5 mph - 0.00 in   Overcast